Location: Bush Observatory
(40.2653°N, 94.3194°W)
Time: 23:06:12
(UTC-06:00)

Daily predictions for brighter satellites

Satellite Brightness Start Highest point End
(mag) Time Altitude Azimuth Time Altitude Azimuth Time Altitude Azimuth
NOSS 2-2 (C) 4.2 18:21:09 10° SW 18:25:07 57° NW 18:29:41 10° NNE
Cosmos 2082 Rocket 4.5 18:22:04 10° WSW 18:26:30 23° NW 18:30:59 10° N
Cosmos 1818 4.1 18:21:52 10° S 18:26:55 41° ESE 18:32:01 10° NE
Meteor 1-18 Rocket 4.3 18:22:26 10° N 18:27:56 60° ENE 18:33:28 10° SSE
SL-16 R/B 2.3 18:26:02 10° NNW 18:31:40 61° ENE 18:37:15 10° SE
Cosmos 1484 Rocket 3.7 18:28:50 10° S 18:32:45 57° W 18:36:38 10° NNW
SJ-6B 3.5 18:30:16 10° SE 18:33:54 34° ENE 18:37:30 10° N
Nadezhda 1 Rocket 3.9 18:27:49 10° N 18:33:55 71° E 18:39:57 10° SSE
ATLAS CENTAUR R/B 4.3 18:32:57 10° WNW 18:34:24 11° NW 18:35:50 10° NNW
DNEPR-1 R/B 3.6 18:30:45 10° NNW 18:34:55 53° NE 18:39:05 10° SE
TSX-5 4.5 18:33:08 10° SSE 18:35:42 22° ESE 18:38:17 10° NE
Cosmos 1992 Rocket 4.3 18:32:15 10° NNW 18:37:29 74° WSW 18:42:41 10° S
Resurs 01 Rocket 2.8 18:36:32 10° ESE 18:39:57 22° ENE 18:43:23 10° NNE
Cosmos 407 Rocket 3.5 18:35:31 10° S 18:40:40 64° ESE 18:45:56 10° NNE
Cosmos 1340 3.7 18:37:53 10° NNE 18:41:05 25° ENE 18:44:15 10° SE
Gbstr 26 Del rocket 4.3 18:38:59 10° S 18:41:43 18° SE 18:43:57 12° E
Cosmos 1238 Rocket 3.7 18:40:31 10° NNE 18:42:33 17° ENE 18:44:33 10° ESE
Cosmos 676 Rocket 4.3 18:37:57 10° S 18:42:51 45° ESE 18:47:48 10° NNE
DELTA 2 R/B (1) 3.7 18:37:40 10° W 18:43:18 83° S 18:48:38 11° E
Meteor 1-20 Rocket 4.3 18:38:28 10° S 18:44:16 75° E 18:50:07 10° NNE
Cosmos 2181 Rocket 4.4 18:42:10 10° N 18:48:00 40° ENE 18:53:51 10° SE
Cosmos 2322 Rocket 2.2 18:43:57 10° NNW 18:49:36 87° ENE 18:55:13 10° SSE
Meteor 1-28 Rocket 3.8 18:46:27 10° N 18:50:14 61° WNW 18:53:59 10° SSW
Tiangong 2 1.0 18:49:07 10° WNW 18:52:12 85° SSW 18:54:33 16° ESE
Cosmos 1300 Rocket 4.1 18:52:00 10° SSE 18:56:00 35° E 19:00:02 10° NNE
COSMO-SKYMED 1 3.8 18:52:25 10° N 18:56:34 44° WNW 19:00:41 10° SW
Meteor 1-13 Rocket 4.5 18:51:33 10° N 18:56:50 44° ENE 19:02:10 10° SSE
Cosmos 1536 4.0 18:55:26 10° SE 18:58:26 21° E 19:01:27 10° NE
Cosmos 2322 4.2 18:56:53 10° N 19:02:14 39° ENE 19:07:31 10° SE
Resurs 1-3 4.3 18:58:41 10° SE 19:02:33 32° ENE 19:06:26 10° N
CZ-2D R/B 4.4 19:03:05 19° E 19:04:27 23° ENE 19:07:31 10° NNE
Okean 1 3.3 19:00:32 10° N 19:04:37 88° E 19:08:40 10° S
FENGYUN 3A 3.7 19:00:31 10° SSE 19:05:46 56° ENE 19:11:05 10° N
Cosmos 1140 Rocket 3.7 19:01:02 10° S 19:05:51 43° ESE 19:10:43 10° NNE
Cosmos 1190 Rocket 4.5 19:01:13 10° SSW 19:06:21 64° WNW 19:11:32 10° NNE
Cosmos 1709 Rocket 3.9 19:01:00 10° S 19:07:11 71° E 19:13:21 10° NNE
Cosmos 1461 2.8 19:03:46 10° NNW 19:07:47 82° WSW 19:11:54 10° SSE
SL-19 R/B 4.5 19:04:05 10° SE 19:09:32 54° ENE 19:15:20 10° N
H-2A R/B 3.1 19:10:10 10° SE 19:13:37 38° ENE 19:17:06 10° N
COSMOS 2428 3.7 19:10:20 10° N 19:15:07 27° NE 19:16:58 23° E
Cosmos 2292 Rocket 4.2 19:10:24 10° S 19:15:14 86° W 19:21:53 10° N
Spot 2 Rocket 3.6 19:10:59 10° SSE 19:15:52 53° ENE 19:20:49 10° N
Meteor 2-4 Rocket 4.1 19:11:12 10° N 19:16:26 39° ENE 19:21:29 10° SE
Cosmos 614 Rocket 4.2 19:13:27 10° S 19:18:14 42° ESE 19:22:59 10° NNE
Cosmos 2151 Rocket 4.3 19:15:52 10° SSW 19:20:17 57° W 19:24:46 10° N
SAR-Lupe-4 4.2 19:20:39 33° ENE 19:20:50 33° ENE 19:24:05 10° N
Helios 1A 3.7 19:21:30 30° E 19:22:10 32° ENE 19:25:53 10° N
Cosmos 2237 Rocket 4.1 19:21:59 10° NNE 19:23:53 12° NE 19:23:53 12° NE
Cosmos 1850 Rocket 4.4 19:19:44 10° S 19:24:39 41° ESE 19:29:38 10° NNE
Okean 1 Rocket 3.1 19:22:26 10° S 19:26:50 60° E 19:31:16 10° NNE
HJ-1C 3.5 19:26:45 10° S 19:30:06 73° WSW 19:33:29 10° NNW
Meteor 1-11 Rocket 3.7 19:25:39 10° S 19:31:24 78° E 19:37:19 10° NNE
Envisat 4.2 19:33:05 24° NE 19:33:05 24° NE 19:36:21 10° NNE
Cosmos 1954 Rocket 4.1 19:28:54 10° SSW 19:34:04 77° WNW 19:39:19 10° NNE
GEOS 3 Rocket 3.8 19:29:08 10° NNE 19:34:22 74° NW 19:39:37 10° SW
Cosmos 2219 3.5 19:32:51 10° S 19:38:16 44° ESE 19:41:02 26° NE
Cosmos 2360 Rocket 2.1 19:36:06 10° NNW 19:41:48 89° ENE 19:47:02 12° SSE
NOSS 8 (E) 4.3 19:38:25 10° SSW 19:41:51 75° ESE 19:42:05 71° E
Helios 1B rocket 2.9 19:44:11 43° SE 19:44:11 43° SE 19:47:20 10° S
Cosmos 2219 Rocket 3.3 19:40:04 10° N 19:44:09 25° NE 19:44:09 25° NE
Okean 1-7 Rocket 3.5 19:41:35 10° N 19:46:06 69° E 19:48:12 31° SSE
Cosmos 1633 3.7 19:42:51 10° SSW 19:46:23 44° W 19:49:56 10° N
Cosmos 1025 Rocket 3.1 19:51:41 10° N 19:55:30 59° NE 19:55:30 59° NE
ALOS 3.5 19:53:16 10° S 19:57:41 42° W 20:02:07 10° NNW
Spot 1 3.8 19:59:37 81° S 19:59:49 89° WSW 20:03:56 10° NNW
Meteor 2-13 Rocket 4.5 19:55:46 10° SSE 20:01:50 51° E 20:07:26 10° NNE
ATLAS 2A CENTAUR R/B 4.3 20:04:07 10° SSW 20:07:07 17° SSE 20:07:25 17° SSE
Cosmos 2333 Rocket 3.3 20:05:23 10° N 20:09:02 29° NNE 20:09:02 29° NNE
BREEZE-M DEB (TANK) 2.7 20:09:10 10° WNW 20:12:04 86° SW 20:12:04 86° SW
Cosmos 1741 Rocket 4.1 20:09:17 10° SSW 20:14:30 72° WNW 20:18:34 17° NNE
Resurs 01 Rocket 3.3 20:12:16 10° SSW 20:16:14 32° W 20:20:13 10° NNW
Cosmos 1610 Rocket 4.3 20:19:17 10° S 20:25:33 86° E 20:31:46 10° N
Tiangong 2 4.4 20:26:11 10° W 20:26:33 12° WSW 20:26:33 12° WSW
Cosmos 1570 Rocket 4.4 20:23:20 10° NNW 20:28:28 59° WSW 20:29:15 52° SW
DELTA 2 R/B (1) 4.2 20:24:12 10° W 20:29:26 47° SSW 20:29:26 47° SSW
COSMOS 2428 3.7 20:54:11 10° NW 20:59:04 44° W 20:59:04 44° W
Cosmos 2237 Rocket 4.0 21:03:34 10° NNW 21:05:44 24° NNW 21:05:44 24° NNW
USA 229 DEB 4.4 21:13:58 10° NW 21:19:44 53° W 21:19:44 53° W
USA 229 4.4 21:14:04 10° NW 21:19:48 53° WNW 21:19:48 53° WNW
Cosmos 2219 Rocket 4.1 21:23:32 10° NW 21:25:54 25° NW 21:25:54 25° NW
